Regional Weather Roundup
Issued by NWS

Home | Current Version | Previous Version | Text Only | Print | Product List | Glossary Off
Versions: 1 2 3 4 5 6 7 8 9 10 11 12 13 14 15 16 17 18 19 20 21 22 23 24 25 26 27 28 29 30 31 32 33 34 35 36 37 38 39 40 41 42 43 44 45 46 47 48 49 50

000
ASUS43 KDMX 181207
RWRIA

WEATHER ROUNDUP FOR IOWA
NATIONAL WEATHER SERVICE DES MOINES IA
600 AM CST THU DEC 18 2014

NOTE: "FAIR" INDICATES FEW OR NO CLOUDS BELOW 12,000 FEET WITH NO
SIGNIFICANT WEATHER AND/OR OBSTRUCTIONS TO VISIBILITY.

* - THESE STATIONS ARE NOT NWS STATIONS...THUS NOT UNDER NWS
QUALITY CONTROL.  THEY ALSO DO NOT REPORT WEATHER SUCH
AS PRECIPITATION OR FOG.

IAZ001>003-012>014-020>022-031>034-043>046-181300-
   NORTHWEST IOWA

CITY           SKY/WX    TMP DP  RH WIND       PRES   REMARKS
CARROLL *      CLOUDY    21  19  93 E8        30.24S WCI  12
CHEROKEE *     CLOUDY    20  19  93 E5        30.25R WCI  14
DENISON *      CLOUDY    23  21  93 E5        30.22R WCI  17
LE MARS *      CLOUDY    23  21  93 SE5       30.24R WCI  17
ORANGE CITY *  CLOUDY    21  18  86 E5        30.22R WCI  15
SHELDON *      CLOUDY    18  16  93 E8        30.22S WCI   7
SIOUX CITY     CLOUDY    26  21  81 SE5       30.23S WCI  20
6HR MIN TEMP:  25; 6HR MAX TEMP:  26;

SPENCER        CLOUDY    18  13  80 SE6       30.24R WCI  10
6HR MIN TEMP:  13; 6HR MAX TEMP:  18;

STORM LAKE *   CLOUDY    19  18  93 SE8       30.24R WCI   9
$$

IAZ055>058-069>071-079>083-090>094-181300-
   SOUTHWEST IOWA

CITY           SKY/WX    TMP DP  RH WIND       PRES   REMARKS
ATLANTIC *     CLOUDY    25  19  80 E6        30.24R WCI  18
AUDUBON *      CLEAR     23  18  80 E6        30.24R WCI  16
CLARINDA *     LGT SNOW  27  25  93 CALM      30.26R
COUNCIL BLFS * MIX PCPN  27  23  86 E6        30.21S WCI  20
CRESTON *      CLOUDY    25  19  80 E8        30.24R WCI  16
HARLAN  *      CLOUDY    25  23  93 E6        30.26S WCI  18
LAMONI         LGT SNOW  24  22  91 E3        30.24S FOG
6HR MIN TEMP:  24; 6HR MAX TEMP:  26; 6HR PCP:  0.02;

RED OAK *      MIX PCPN  27  21  80 E7        30.24S WCI  19
SHENANDOAH *   LGT SNOW  27  25  93 E7        30.24S WCI  19
$$

IAZ047>049-059>061-072>074-084-181300-
   CENTRAL IOWA

CITY           SKY/WX    TMP DP  RH WIND       PRES   REMARKS
AMES           CLOUDY    20  15  81 E6        30.28S WCI  12
6HR MIN TEMP:  18; 6HR MAX TEMP:  20;

ANKENY *       CLOUDY    21  18  86 E5        30.28S WCI  15
CHARITON *     CLOUDY    23  18  80 SE6       30.26S WCI  16
DES MOINES     CLOUDY    23  16  74 E8        30.27S WCI  14
6HR MIN TEMP:  21; 6HR MAX TEMP:  23;

GRINNELL*      CLOUDY    19  16  86 CALM      30.28S
KNOXVILLE *    CLOUDY    21  16  79 E7        30.26S WCI  13
MARSHALLTOWN   PTCLDY    15  11  83 CALM      30.28R
6HR MIN TEMP:  12; 6HR MAX TEMP:  16;

PELLA *        CLOUDY    22  17  84 CALM      30.30R
PERRY *        MOCLDY    23  19  86 E7        30.27R WCI  15
$$

IAZ004>006-015-016-023>025-035-036-181300-
   NORTH CENTRAL IOWA

CITY           SKY/WX    TMP DP  RH WIND       PRES   REMARKS
ALGONA *       CLOUDY    14  12  92 CALM      30.27R
CLARION *      MOCLDY    16  16 100 E5        30.27R WCI   9
ESTHERVILLE    CLOUDY    14  12  92 E5        30.24S WCI   6
6HR MIN TEMP:   8; 6HR MAX TEMP:  14;

FORT DODGE *   CLOUDY    19  12  73 E6        30.27S WCI  11
MASON CITY     CLOUDY    18  14  84 SE3       30.27S
6HR MIN TEMP:  14; 6HR MAX TEMP:  18;

FOREST CITY *  CLOUDY    14  12  92 CALM      30.26R
IOWA FALLS *     N/A     16  13  89 CALM      30.28R
$$

IAZ007>011-017>019-026>030-037>042-050>054-066-181300-
   NORTHEAST IOWA

CITY           SKY/WX    TMP DP  RH WIND       PRES   REMARKS
CEDAR RAPIDS   PTCLDY    14  11  87 N3        30.28R
6HR MIN TEMP:  12; 6HR MAX TEMP:  15;

CHARLES CITY * CLOUDY    16  12  86 CALM      30.27S
CLINTON *      MOCLDY    14  10  85 N3        30.31R
DECORAH *      CLEAR     14  12  92 CALM      30.26R
DUBUQUE        PTCLDY    15  12  88 N5        30.26S WCI   8
6HR MIN TEMP:  14; 6HR MAX TEMP:  17;

MONTICELLO *   CLEAR     14  14 100 CALM      30.29R
OELWEIN *      CLEAR     14  10  85 CALM      30.27S
WATERLOO       CLEAR     11   8  88 CALM      30.29R
6HR MIN TEMP:  10; 6HR MAX TEMP:  15;

$$

IAZ064-065-067-068-078-181300-
   EAST CENTRAL IOWA

CITY           SKY/WX    TMP DP  RH WIND       PRES   REMARKS
DAVENPORT      PTCLDY    16  12  84 CALM      30.29R
6HR MIN TEMP:  14; 6HR MAX TEMP:  17;

IOWA CITY      MOCLDY    17  14  88 CALM      30.32R
6HR MIN TEMP:  15; 6HR MAX TEMP:  20;

MT. PLEASANT * CLOUDY    22  18  83 CALM      30.30S
MUSCATINE *    CLOUDY    21  18  86 CALM      30.32R
QUAD CITIES    MOCLDY    20  16  84 CALM      30.30R
6HR MIN TEMP:  16; 6HR MAX TEMP:  20;

$$

IAZ062-063-075>077-085>089-095>099-181300-
   SOUTHEAST IOWA

CITY           SKY/WX    TMP DP  RH WIND       PRES   REMARKS
BURLINGTON     MIX PCPN  23  19  85 N3        30.29R
6HR MIN TEMP:  20; 6HR MAX TEMP:  23; 6HR PCP: TRACE;

FAIRFIELD *    CLOUDY    23  18  80 NE7       30.29S WCI  15
FORT MADISON * CLOUDY    25  21  86 CALM      30.29S
KEOKUK *       CLOUDY    25  21  86 CALM      30.29R
OSKALOOSA *    CLOUDY    21  18  87 NE5       30.29S WCI  14
CENTERVILLE *  FLURRIES  25  19  80 E5        30.28R WCI  19
OTTUMWA        CLOUDY    22  16  78 NE5       30.28R WCI  16
6HR MIN TEMP:  17; 6HR MAX TEMP:  22;

WASHINGTON *   CLOUDY    21  19  93 CALM      30.30R
$$

ABBREVIATIONS USED IN REMARKS
   TC - TEMPERATURES IN CELSIUS
  WCI - WIND CHILL INDEX
   HX - HEAT INDEX
  VSB - VISIBILITY
$$



USA.gov is the U.S. government's official web portal to all federal, state and local government web resources and services.